Skip Page Navigation
NASA JPL Caltech
NASA Logo - Jet Propulsion Laboratory + View the NASA Portal
+ Center for Near-Earth Object Studies
JPL Home Earth Solar System Stars & Galaxies Technology
JPL Solar System Dynamics
BODIES ORBITS EPHEMERIDES TOOLS PHYSICAL DATA DISCOVERY FAQ SITE MAP
IMPORTANT: The SSD Announcement email list is now available. Major changes are coming in the near future, including possible hostname and/or URL changes. To be notified of such changes, subscribe to this email list.

Please visit this page for more details.


JPL Small-Body Database Browser
Search: [ help ]  
447381 (2006 AB95)
Classification: Main-belt Asteroid          SPK-ID: 2447381
Ephemeris | Orbit Diagram | Orbital Elements | Mission Design | Physical Parameters | Discovery Circumstances ]

[ show orbit diagram ]
Orbital Elements at Epoch 2458600.5 (2019-Apr-27.0) TDB
Reference: JPL 6 (heliocentric ecliptic J2000)
 Element Value Uncertainty (1-sigma)   Units 
e .1601864398662821 5.8333e-07  
a 2.295641393380012 3.2774e-08 au
q 1.927910771364796 1.3248e-06 au
i .5812948982298783 9.9894e-06 deg
node 234.1367352166524 0.0018423 deg
peri 242.9431416546023 0.0018591 deg
M 291.8953483009764 0.00021204 deg
tp 2458840.841503061504
(2019-Dec-23.34150306)
0.00075149 TDB
period 1270.440989618656
3.48
2.7207e-05
7.449e-08
d
yr
n .28336617201564 6.0684e-09 deg/d
Q 2.663372015395227 3.8025e-08 au
  Orbit Determination Parameters
   # obs. used (total)      68  
   data-arc span      5154 days (14.11 yr)  
   first obs. used      2001-09-12  
   last obs. used      2015-10-23  
   planetary ephem.      DE431  
   SB-pert. ephem.      SB431-N16  
   condition code      0  
   norm. resid. RMS      .49941  
   source      ORB  
   producer      Otto Matic  
   solution date      2017-Apr-09 11:40:04  

Additional Information
 Earth MOID = .944539 au 
 Jupiter MOID = 2.42355 au 
 T_jup = 3.578 
[ show covariance matrix ]

Ephemeris | Orbit Diagram | Orbital Elements | Mission Design | Physical Parameters | Discovery Circumstances ]

Physical Parameter Table
Parameter Symbol Value Units Sigma Reference Notes
absolute magnitude H 18.8   n/a MPO409027  

447381 (2006 AB95)          Discovered 2006-Jan-09 by Spacewatch at Kitt Peak
Reference: Last Updated: 2015-10-28
Ephemeris | Orbit Diagram | Orbital Elements | Mission Design | Physical Parameters | Discovery Circumstances ]
ABOUT SSD CREDITS/AWARDS PRIVACY/COPYRIGHT GLOSSARY LINKS
FirstGov
(server date/time)  
NASA Home Page
Site Manager:   Ryan S. Park
Webmaster  Alan B. Chamberlin